Regional Weather Roundup
Issued by NWS

Home | Current Version | Previous Version | Text Only | Print | Product List | Glossary Off
Versions: 1 2 3 4 5 6 7 8 9 10 11 12 13 14 15 16 17 18 19 20 21 22 23 24 25 26 27 28 29 30 31 32 33 34 35 36 37 38 39 40 41 42 43 44 45 46 47 48 49 50

000
ASUS43 KLMK 271302
RWRKY
KENTUCKY REGIONAL WEATHER ROUNDUP
NATIONAL WEATHER SERVICE LOUISVILLE KY
800 AM EST THU NOV 27 2014

NOTE "FAIR" INDICATES FEW OR NO CLOUDS BELOW 12,000 FEET
WITH NO SIGNIFICANT WEATHER AND/OR OBSTRUCTIONS TO VISIBILITY.

KYZ001>023-026-027-061>063-070>075-271400-
WESTERN AND SOUTH CENTRAL KENTUCKY

CITY           SKY/WX    TMP DP  RH WIND       PRES   REMARKS
PADUCAH        CLOUDY    34  30  85 NW12      30.38R WCI  25
HENDERSON      CLOUDY    30  25  80 W14       30.36R WCI  20
OWENSBORO      CLOUDY    31  26  81 NW14      30.34R WCI  21
HOPKINSVILLE   CLOUDY    34  34  99 NW9       30.34R WCI  27
BOWLING GREEN  CLOUDY    35  30  82 NW8       30.30R WCI  29
GLASGOW        NOT AVBL
$$

KYZ024-025-028>034-038-045-046-053-271400-
NORTH CENTRAL KENTUCKY

CITY           SKY/WX    TMP DP  RH WIND       PRES   REMARKS
LOUISVILLE/SDF CLOUDY    31  26  82 NW10      30.27R WCI  22
LOUISVILLE/LOU CLOUDY    31  26  82 NW7       30.28R WCI  24
FORT KNOX      CLOUDY    30  28  90 NW8       30.25R WCI  23
$$

KYZ035>037-039>044-047>052-055>060-089>105-271400-
NORTHEAST KENTUCKY

CITY           SKY/WX    TMP DP  RH WIND       PRES   REMARKS
LEXINGTON      CLOUDY    29  26  89 NW9       30.21R WCI  20
COVINGTON      CLOUDY    29  21  72 NW12      30.21R WCI  19
FRANKFORT      CLOUDY    29  24  82 NW8       30.22R WCI  21
$$

KYZ054-064>069-076>088-106>120-271400-
SOUTHEAST KENTUCKY

CITY           SKY/WX    TMP DP  RH WIND       PRES   REMARKS
JACKSON        LGT SNOW  31  29  92 NW3       30.14R FOG
LONDON         CLOUDY    34  30  85 NW7       30.17R WCI  28
SOMERSET       NOT AVBL
MIDDLESBORO    NOT AVBL
MONTICELLO     CLOUDY    34  32  92 NW7       30.25R WCI  28
$$



USA.gov is the U.S. government's official web portal to all federal, state and local government web resources and services.